[TLELIST] Archives

 

[TLELIST] Current TLEs

November 18th 2024 PDT

HST 1 20580U 90037B 24322.90569541 .00008116 00000-0 34538-3 0 9998 2 20580 28.4700 32.8909 0001696 268.8069 91.2330 15.21149232700690 ISS (ZARYA) 1 25544U 98067A 24323.23641665 .00015918 00000-0 28694-3 0 9993 2 25544 51.6394 272.1811 0007335 231.4765 128.5566 15.49919217482441 CXO 1 25867U 99040B 24323.87927738 .00000571 00000-0 00000-0 0 9998 2 25867 44.7074 141.5385 8725615 304.2436 359.8848 0.37806582 15144 ...Continue Reading

[TLELIST] Current TLEs

November 18th 2024 PDT

HST 1 20580U 90037B 24322.90569541 .00008116 00000-0 34538-3 0 9998 2 20580 28.4700 32.8909 0001696 268.8069 91.2330 15.21149232700690 ISS (ZARYA) 1 25544U 98067A 24323.23641665 .00015918 00000-0 28694-3 0 9993 2 25544 51.6394 272.1811 0007335 231.4765 128.5566 15.49919217482441 CXO 1 25867U 99040B 24323.87927738 .00000571 00000-0 00000-0 0 9998 2 25867 44.7074 141.5385 8725615 304.2436 359.8848 0.37806582 15144 ...Continue Reading

[TLELIST] Current TLEs

November 17th 2024 PDT

HST 1 20580U 90037B 24321.65912821 .00009845 00000-0 42102-3 0 9998 2 20580 28.4697 41.2857 0001752 252.6034 107.4367 15.21129706700501 ISS (ZARYA) 1 25544U 98067A 24322.09401066 .00019103 00000-0 34302-3 0 9998 2 25544 51.6410 277.8367 0007583 226.0535 235.5529 15.49882713482266 CXO 1 25867U 99040B 24323.87927738 .00000571 00000-0 00000-0 0 9998 2 25867 44.7074 141.5385 8725615 304.2436 359.8848 0.37806582 15144 ...Continue Reading

[TLELIST] Current TLEs

November 17th 2024 PDT

HST 1 20580U 90037B 24321.65912821 .00009845 00000-0 42102-3 0 9998 2 20580 28.4697 41.2857 0001752 252.6034 107.4367 15.21129706700501 ISS (ZARYA) 1 25544U 98067A 24322.09401066 .00019103 00000-0 34302-3 0 9998 2 25544 51.6410 277.8367 0007583 226.0535 235.5529 15.49882713482266 CXO 1 25867U 99040B 24323.87927738 .00000571 00000-0 00000-0 0 9998 2 25867 44.7074 141.5385 8725615 304.2436 359.8848 0.37806582 15144 ...Continue Reading

[TLELIST] Current TLEs

November 17th 2024 PDT

HST 1 20580U 90037B 24321.65912821 .00009845 00000-0 42102-3 0 9998 2 20580 28.4697 41.2857 0001752 252.6034 107.4367 15.21129706700501 ISS (ZARYA) 1 25544U 98067A 24322.09401066 .00019103 00000-0 34302-3 0 9998 2 25544 51.6410 277.8367 0007583 226.0535 235.5529 15.49882713482266 CXO 1 25867U 99040B 24323.87927738 .00000571 00000-0 00000-0 0 9998 2 25867 44.7074 141.5385 8725615 304.2436 359.8848 0.37806582 15144 ...Continue Reading

[TLELIST] Current TLEs

November 16th 2024 PDT

HST 1 20580U 90037B 24320.54376403 .00011204 00000-0 48059-3 0 9994 2 20580 28.4693 48.7973 0001842 239.9040 120.1370 15.21107916700070 ISS (ZARYA) 1 25544U 98067A 24321.38465264 .00018621 00000-0 33492-3 0 9992 2 25544 51.6413 281.3529 0007607 223.0065 238.0981 15.49853668482156 CXO 1 25867U 99040B 24323.87927738 .00000571 00000-0 00000+0 0 9997 2 25867 44.7074 141.5385 8725615 304.2436 359.8848 0.37806582 26304 ...Continue Reading

[TLELIST] Current TLEs

November 16th 2024 PDT

HST 1 20580U 90037B 24320.54376403 .00011204 00000-0 48059-3 0 9994 2 20580 28.4693 48.7973 0001842 239.9040 120.1370 15.21107916700070 ISS (ZARYA) 1 25544U 98067A 24321.38465264 .00018621 00000-0 33492-3 0 9992 2 25544 51.6413 281.3529 0007607 223.0065 238.0981 15.49853668482156 CXO 1 25867U 99040B 24323.87927738 .00000571 00000-0 00000+0 0 9997 2 25867 44.7074 141.5385 8725615 304.2436 359.8848 0.37806582 26304 ...Continue Reading

[TLELIST] Current TLEs

November 15th 2024 PDT

HST 1 20580U 90037B 24319.49399431 .00009948 00000-0 42605-3 0 9995 2 20580 28.4690 55.8672 0001842 226.0326 134.0115 15.21085168699911 ISS (ZARYA) 1 25544U 98067A 24320.36274227 .00015569 00000-0 28188-3 0 9990 2 25544 51.6413 286.4173 0007936 217.3657 298.3197 15.49809951481990 CXO 1 25867U 99040B 24321.23407868 .00000577 00000-0 00000-0 0 9999 2 25867 44.6271 141.7671 8729341 304.0864 359.8811 0.37810324 15133 ...Continue Reading

[TLELIST] Current TLEs

November 15th 2024 PDT

HST 1 20580U 90037B 24319.49399431 .00009948 00000-0 42605-3 0 9995 2 20580 28.4690 55.8672 0001842 226.0326 134.0115 15.21085168699911 ISS (ZARYA) 1 25544U 98067A 24320.36274227 .00015569 00000-0 28188-3 0 9990 2 25544 51.6413 286.4173 0007936 217.3657 298.3197 15.49809951481990 CXO 1 25867U 99040B 24321.23407868 .00000577 00000-0 00000-0 0 9999 2 25867 44.6271 141.7671 8729341 304.0864 359.8811 0.37810324 15133 ...Continue Reading

[TLELIST] Current TLEs

November 14th 2024 PDT

HST 1 20580U 90037B 24318.70665724 .00010647 00000-0 45681-3 0 9994 2 20580 28.4686 61.1695 0001920 215.8958 144.1506 15.21069779699797 ISS (ZARYA) 1 25544U 98067A 24319.39615400 -.01173337 00000-0 -23699-1 0 9994 2 25544 51.6334 291.0867 0006169 180.6462 337.6832 15.48503878481842 CXO 1 25867U 99040B 24321.23407868 .00000577 00000-0 00000-0 0 9999 2 25867 44.6271 141.7671 8729341 304.0864 359.8811 0.37810324 15133 ...Continue Reading
  • This mailing list is a public mailing list - anyone may join or leave, at any time.
  • This mailing list is announce-only.

International Space Station (ISS) / Hubble Space Telescope (HST) / Chandra X-Ray Observatory Orbital Data via EMAIL

Privacy Policy:

Private list